Simultaneous Nadir Overpasses (SNOs) Predictions

Prediction of SNOs between LANDSAT-8 and METOP-A Satellite Orbit:

Table of predicted SNOs for the next 14.0 days since TLE Epoch: 1/3/2014
Index Date (LANDSAT-8) Time (LANDSAT-8) Lat,Lon (LANDSAT-8) SZA (LANDSAT-8 ) Date (METOP-A) Time (METOP-A) Lat,Lon (METOP-A) SZA (METOP-A ) Distance(km) Time Diff (sec)
1 01/05/2014 01:15:45 81.17,-158.41 105.66 01/05/2014 01:14:45 81.16,-158.54 105.62 2.31 60
2 01/05/2014 02:05:11 -81.19, 9.58 74.30 01/05/2014 02:05:23 -81.19, 9.77 74.28 3.26 12
3 01/07/2014 20:49:57 81.16, -92.09 105.27 01/07/2014 20:49:05 81.17, -91.99 105.27 1.84 52
4 01/07/2014 21:39:23 -81.18, 75.92 74.69 01/07/2014 21:39:44 -81.19, 75.95 74.67 0.57 21
5 01/10/2014 16:24:09 81.17, -25.56 104.86 01/10/2014 16:23:26 81.17, -25.50 104.85 1.22 43
6 01/10/2014 17:13:35 -81.19, 142.45 75.10 01/10/2014 17:14:05 -81.19, 142.44 75.09 0.17 30
7 01/13/2014 11:58:20 81.18, 41.16 104.42 01/13/2014 11:57:46 81.18, 41.31 104.42 2.58 34
8 01/13/2014 12:47:47 -81.18,-151.19 75.59 01/13/2014 12:48:26 -81.19,-151.12 75.57 1.22 39
9 01/16/2014 07:32:31 81.17, 107.34 103.85 01/16/2014 07:32:07 81.17, 107.29 103.84 0.95 24




NCC Satellite Simultaneous Nadir Overpasses (SNOs) Prediction Service
